C/2014 S2 ( PanSTARRS )

Japanese version
Home page
Updated on November 13, 2016

---------------------------------------------------------------------

* Profile

Discovery Date September 22, 2014
Magnitude 20.9 mag
Discoverer Pan-STARRS 1 telescope (Haleakala)

* Pictures

* Orbital Elements

Epoch 2015 Dec. 4.0 TT = JDT 2457360.5
T 2015 Dec.  9.79882 TT                                 MPCW
q   2.1006779            (2000.0)            P               Q
z  +0.0058738      Peri.   87.80729     -0.02252481     -0.99155659
 +/-0.0000003      Node     8.12230     +0.03398761     -0.12842149
e   0.9876610      Incl.   64.67037     +0.99916839     -0.01798484
From 2440 observations 2014 Sept. 2-2016 July 16, mean residual 0".7.

* Finding Charts

* Magnitudes Graph

        m1 =   6.5 + 5 log d + 15.0 log r  [    ,-129]  (             - 2015 Aug.  2)
        m1 = -12   + 5 log d + 60   log r  [-129,   0]  (2015 Aug.  2 - 2015 Dec.  9)
        m1 =   4.1 + 5 log d + 10.0 log r  [   0,    ]  (2015 Dec.  9 -             )

---------------------------------------------------------------------

The orbital elements are published on M.P.E.C. 2016-V116.
The charts are made with StellaNavigator Ver.8 (AstroArts).
The magnitudes graphs are made with Comet for Windows.

---------------------------------------------------------------------

Copyright(C) Seiichi Yoshida (comet@aerith.net). All rights reserved.